Punta Gorda, FL

12:33 AM EDT on May 26, 2017 (GMT -0400)
Charlotte County

Weather History for KPGD - February, 2014

Change the Weather History Date:

Sunday, February 16, 2014

  Actual Average Record
Temperature  
Mean Temperature 58 °F -  
Max Temperature 75 °F 74 °F 84 °F (2001)
Min Temperature 41 °F 52 °F 39 °F (2007)
Degree Days  
Heating Degree Days 7    
Growing Degree Days 8 (Base 50)    
Moisture  
Dew Point 43 °F    
Average Humidity 64    
Maximum Humidity 93    
Minimum Humidity 18    
Precipitation  
Precipitation 0.00 in - - ()
Sea Level Pressure  
Sea Level Pressure 30.19 in    
Wind  
Wind Speed 5 mph (NNW)    
Max Wind Speed 13 mph    
Max Gust Speed -    
Visibility 10 miles    
Events      
Averages and records for this station are not official NWS values.
T = Trace of Precipitation, MM = Missing Value Source: NWS Daily Summary

Daily Weather History Graph

Daily Weather History Graph

Search for Another Location

Airport or City:

Trip Planner

Search our weather history database for the weather conditions in past years. The results will help you decide how hot, cold, wet, or windy it might be!

Date:

Astronomy

Feb. 16, 2014 Rise Set
Actual Time 7:03 AM EST 6:20 PM EST
Civil Twilight 6:39 AM EST 6:44 PM EST
Nautical Twilight 6:12 AM EST 7:11 PM EST
Astronomical Twilight 5:45 AM EST 7:38 PM EST
Moon 8:01 PM EST (2/16) 7:45 AM EST (2/16)
Length of Visible Light 12h 04m
Length of Day
11h 17m
Full, 97% of the Moon is Illuminated
Feb 16
Full
Feb 22
Last Quarter
Mar 1
New
Mar 8
First Quarter
Mar 16
Full

Hourly Weather History & Observations

Time (EST) Temp. Windchill Dew Point Humidity Pressure Visibility Wind Dir Wind Speed Gust Speed Precip Events Conditions
12:53 AM 48.9 °F - 44.1 °F 83% 30.17 in 10.0 mi NNW 6.9 mph - N/A   Clear
1:53 AM 48.0 °F - 44.1 °F 86% 30.16 in 10.0 mi North 4.6 mph - N/A   Clear
2:53 AM 45.0 °F - 43.0 °F 93% 30.15 in 10.0 mi Calm Calm - N/A   Clear
3:53 AM 43.0 °F - 41.0 °F 93% 30.16 in 8.0 mi Calm Calm - N/A   Clear
4:53 AM 42.1 °F - 39.9 °F 92% 30.17 in 10.0 mi Calm Calm - N/A   Clear
5:53 AM 41.0 °F 39.0 °F 39.0 °F 93% 30.18 in 7.0 mi NE 3.5 mph - N/A   Clear
6:53 AM 44.1 °F 42.5 °F 42.1 °F 93% 30.19 in 10.0 mi North 3.5 mph - N/A   Clear
7:53 AM 46.9 °F - 45.0 °F 93% 30.21 in 7.0 mi North 3.5 mph - N/A   Clear
8:53 AM 53.1 °F - 46.9 °F 80% 30.22 in 10.0 mi ENE 5.8 mph - N/A   Clear
9:53 AM 60.1 °F - 45.0 °F 57% 30.22 in 10.0 mi ESE 4.6 mph - N/A   Clear
10:53 AM 64.9 °F - 42.1 °F 43% 30.23 in 10.0 mi Variable 3.5 mph - N/A   Clear
11:53 AM 70.0 °F - 37.0 °F 30% 30.21 in 10.0 mi NNE 5.8 mph - N/A   Clear
12:53 PM 72.0 °F - 32.0 °F 23% 30.19 in 10.0 mi West 3.5 mph - N/A   Clear
1:53 PM 75.0 °F - 30.9 °F 20% 30.16 in 10.0 mi Calm Calm - N/A   Clear
2:53 PM 75.9 °F - 28.9 °F 18% 30.15 in 10.0 mi Variable 3.5 mph - N/A   Clear
3:53 PM 75.0 °F - 43.0 °F 32% 30.15 in 10.0 mi WNW 12.7 mph - N/A   Clear
4:53 PM 71.1 °F - 46.9 °F 42% 30.15 in 10.0 mi WNW 11.5 mph - N/A   Clear
5:53 PM 68.0 °F - 48.9 °F 50% 30.17 in 10.0 mi WNW 8.1 mph - N/A   Clear
6:53 PM 63.0 °F - 48.0 °F 58% 30.19 in 10.0 mi WNW 6.9 mph - N/A   Clear
7:53 PM 60.1 °F - 50.0 °F 69% 30.21 in 10.0 mi NW 9.2 mph - N/A   Clear
8:53 PM 57.0 °F - 48.0 °F 72% 30.22 in 10.0 mi NNW 6.9 mph - N/A   Clear
9:53 PM 55.9 °F - 46.0 °F 69% 30.22 in 10.0 mi NNW 5.8 mph - N/A   Clear
10:53 PM 54.0 °F - 46.0 °F 75% 30.22 in 10.0 mi North 4.6 mph - N/A   Clear
11:53 PM 51.1 °F - 45.0 °F 80% 30.22 in 10.0 mi North 4.6 mph - N/A   Clear